Regional Weather Roundup
Issued by NWS Nashville, TN

Current Version | Previous Version | Text Only | Print | Product List | Glossary Off
Versions: 1 2 3 4 5 6 7 8 9 10 11 12 13 14 15 16 17 18 19 20 21 22 23 24 25 26 27 28 29 30 31 32 33 34 35 36 37 38 39 40 41 42 43 44 45 46 47 48 49 50

324
ASUS44 KOHX 290310
RWROHX
MIDDLE TENNESSEE HOURLY WEATHER ROUNDUP
NATIONAL WEATHER SERVICE NASHVILLE TN
1000 PM CDT SAT MAY 28 2016

NOTE: "FAIR" INDICATES FEW OR NO CLOUDS BELOW 12,000 FEET WITH
NO SIGNIFICANT WEATHER AND/OR OBSTRUCTIONS TO VISIBILITY.

* THESE REPORTS ARE NOT UNDER NWS QUALITY CONTROL AND MAY NOT
  REPORT WEATHER SUCH AS PRECIPITATION AND FOG.


TNZ005>011-023>034-057-059-062>066-078-080-290400
...NORTHERN MIDDLE TENNESSEE...

CITY           SKY/WX    TMP DP  RH WIND       PRES   REMARKS
CLARKSVILLE    MOCLDY    74  65  73 S6        30.07R
CROSSVILLE     CLOUDY    66  61  84 CALM      30.18R
DICKSON        MOCLDY    73  64  73 S6        30.09R
LEBANON        PTCLDY    71  65  81 SE3       30.08
NASHVILLE      PTCLDY    73  61  65 CALM      30.09R
ROCKWOOD       CLOUDY    70  62  75 NW5       30.16
SMYRNA         MOCLDY    70  65  84 S5        30.10S
SPARTA         CLEAR     66  64  94 CALM      30.12F
$$
TNZ056-058-060-061-075>077-079-093>097-290400
...SOUTHERN MIDDLE TENNESSEE...

CITY           SKY/WX    TMP DP  RH WIND       PRES   REMARKS
COLUMBIA       CLEAR     72  72 100 S3        30.08S
FAYETTEVILLE   PTCLDY    70  66  88 CALM      30.11S
LEWISBURG      PTCLDY    64  62  93 CALM      30.10R
MCMINNVILLE    CLEAR     64  64 100 CALM      30.13S
SHELBYVILLE    CLEAR     72  70  94 SE5       30.12S
TULLAHOMA      CLEAR     70  70 100 CALM      30.13S
WINCHESTER     CLEAR     68  64  88 CALM      30.12S
$$


...KEY TO REMARKS...
VSB - VISIBILITY IN MILES
WCI - WIND CHILL INDEX
HX  - HEAT INDEX





USA.gov is the U.S. government's official web portal to all federal, state and local government web resources and services.